#timestamp,LO_Frequency,Hit,StdDev 
1602666015.5,286047005.3,N
1602666035.3,286047007.4,N
1602666055.2,286047006.1,N
1602666075.0,286047006.7,N
1602666075.9,286047006.7,N
1602666095.8,286047003.6,N
1602666115.6,286047001.7,N
1602666135.4,286046999.3,N
1602666155.3,286046999.1,N
1602666175.1,286046994.9,N
1602666195.9,286046996.2,N
1602666215.7,286046997.1,N
1602666235.5,286047001.1,N
1602666255.4,286047001.0,N
1602666275.2,286047006.0,N
1602666295.0,286047006.7,N
1602666295.9,286047006.7,N
1602666315.8,286047001.3,N
1602666335.6,286046998.2,N
1602666355.5,286047002.7,N
1602666375.3,286047000.4,N
1602666395.1,286047004.2,N
1602666415.9,286046998.1,N
1602666435.7,286046999.5,N
1602666455.6,286046995.2,N
1602666475.4,286046995.8,N
1602666495.2,286046995.7,N
1602666515.1,286046994.2,N
1602666516.0,286046994.2,N
1602666535.8,286046991.8,N
1602666555.6,286046994.0,N
1602666575.5,286046993.1,N
1602666595.3,286046995.1,N
1602666615.2,286047000.7,N
1602666635.9,286047002.8,N
1602666655.7,286046996.9,N
1602666675.6,286046994.4,N
1602666695.4,286046991.0,N
1602666715.2,286046989.4,N
1602666735.1,286046989.5,N
1602666736.0,286046989.5,N
1602666755.8,286046987.4,N
1602666775.7,286046992.7,N
1602666795.5,286046990.4,N
1602666815.3,286046989.8,N
1602666835.2,286046987.0,N
1602666855.0,286046988.1,N
1602666855.9,286046988.1,N
1602666875.8,286046986.1,N
1602666895.6,286046985.9,N
1602666915.4,286046982.7,Y
1602666935.3,286046991.6,P
1602666955.1,286046989.8,P
1602666975.9,286046986.8,P
1602666995.7,286046986.8,Y
1602667015.5,286046997.0,P
1602667035.4,286047004.8,N
1602667055.2,286047008.9,N
1602667075.0,286047012.1,N
1602667075.9,286047012.1,N
1602667095.8,286047012.6,N
1602667115.6,286047011.2,N
1602667135.5,286047010.4,N
1602667155.3,286047004.8,N
1602667175.1,286047005.3,N
1602667195.9,286047004.2,N
1602667215.7,286047001.8,N
1602667235.5,286047010.6,N
1602667255.4,286047012.0,N
1602667275.2,286047016.8,N
1602667295.1,286047017.5,N
1602667296.0,286047017.5,N
1602667315.8,286047017.3,N
1602667335.6,286047014.6,N
1602667355.5,286047011.8,N
1602667375.3,286047012.0,N
1602667395.2,286047008.0,N
1602667415.9,286047006.4,N
1602667435.7,286047006.7,N
1602667455.6,286047013.7,N
1602667475.4,286047023.4,Y
1602667495.2,286047015.3,P
1602667515.1,286047016.8,P
1602667516.0,286047016.8,P
1602667535.8,286047011.9,Y
1602667555.7,286046993.0,P
1602667575.5,286046991.1,N
1602667595.3,286046988.7,N
1602667615.2,286046990.0,N
1602667635.0,286046983.7,N
1602667635.9,286046983.7,N
1602667655.8,286046981.6,N
1602667675.6,286046978.1,N
1602667695.4,286046974.8,N
1602667715.3,286046969.7,N
1602667735.1,286046972.3,N
1602667755.8,286046970.8,N
1602667775.7,286046969.5,N
1602667795.5,286046978.1,N
1602667815.4,286046976.2,N
1602667835.2,286046981.9,N
1602667855.0,286046979.0,N
1602667855.9,286046979.0,N
1602667875.8,286046976.5,N
1602667895.6,286046974.5,N
1602667915.4,286046977.9,N
1602667935.3,286046978.6,N
1602667955.1,286046971.3,N
1602667975.9,286046968.6,Y
1602667995.7,286046988.0,P
1602668015.5,286046986.6,P
1602668035.4,286046982.3,P
1602668055.2,286046988.3,Y
1602668075.1,286047008.9,P
1602668076.0,286047008.9,N
1602668095.8,286047012.2,N
1602668115.6,286047012.8,N
1602668135.5,286047016.0,N
1602668155.3,286047012.7,N
1602668175.1,286047017.2,N
1602668195.9,286047016.9,N
1602668215.7,286047013.7,N
1602668235.6,286047010.7,N
1602668255.4,286047014.4,N
1602668275.2,286047021.5,N
1602668295.1,286047016.8,N
1602668296.0,286047016.8,N
1602668315.8,286047019.3,N
1602668335.6,286047019.5,N
1602668355.5,286047017.5,N
1602668375.3,286047016.0,N
1602668395.2,286047012.7,N
1602668415.9,286047010.2,N
1602668435.7,286047005.1,N
1602668455.6,286046999.7,N
1602668475.4,286047002.8,N
1602668495.2,286046998.3,N
1602668515.1,286046998.7,N
1602668516.0,286046998.7,N
1602668535.8,286047000.5,N
1602668555.7,286047004.5,N
1602668575.5,286047008.9,N
1602668595.3,286047008.5,N
1602668615.2,286047005.2,N
1602668635.0,286047002.4,N
1602668635.9,286047002.4,N
1602668655.8,286046999.7,N
1602668675.6,286047002.4,N
1602668695.4,286047000.9,N
1602668715.3,286047001.8,N
1602668735.1,286047002.8,N
1602668755.9,286047005.7,N
1602668775.7,286047007.6,N
1602668795.5,286047006.0,N
1602668815.4,286047000.5,N
1602668835.2,286046996.7,N
1602668855.0,286046996.2,N
1602668855.9,286046996.2,N
1602668875.8,286046996.5,N
1602668895.6,286047003.1,N
1602668915.5,286047002.7,N
1602668935.3,286047002.0,N
1602668955.1,286047002.6,N
1602668975.9,286047005.5,N
1602668995.7,286047008.5,N
1602669015.6,286047008.6,N
1602669035.4,286047004.7,N
1602669055.2,286047004.6,N
1602669075.1,286047001.4,N
1602669076.0,286047001.4,N
1602669095.8,286047004.3,N
1602669115.6,286047000.9,N
1602669135.5,286046998.9,N
1602669155.3,286047005.8,N
1602669175.2,286047001.5,N
1602669195.0,286047007.2,N
1602669195.9,286047007.2,N
1602669215.7,286047005.6,N
1602669235.6,286047003.8,N
1602669255.4,286047003.5,N
1602669275.3,286047008.2,N
1602669295.1,286047010.5,N
1602669296.0,286047010.5,N
1602669315.8,286047007.8,N
1602669335.7,286047010.4,N
1602669355.5,286047005.4,N
1602669375.4,286047003.3,N
1602669395.2,286047006.0,N
1602669415.0,286047013.2,Y
1602669415.9,286047013.2,P
1602669435.8,286047006.7,N
1602669455.6,286047002.2,N
1602669475.4,286046999.1,N
1602669495.3,286046995.6,N
1602669515.1,286046994.9,N
1602669535.9,286046992.0,N
1602669555.7,286046990.6,N
1602669575.6,286046988.0,N
1602669595.4,286046985.7,N
